Weather Roundup
Issued by NWS Corpus Christi, TX

Current Version | Previous Version | Text Only | Print | Product List | Glossary On
Versions: 1 2 3 4 5 6 7 8 9 10 11 12 13 14 15 16 17 18 19 20 21 22 23 24 25 26 27 28 29 30 31 32 33 34 35 36 37 38 39 40 41 42 43 44 45 46 47 48 49 50
000
ASUS44 KCRP 220710
HRRCRP

SOUTH TEXAS REGIONAL WEATHER ROUNDUP
NATIONAL WEATHER SERVICE CORPUS CHRISTI TX
200 AM CDT TUE JUL 22 2014


TXZ229>244-220800-
...CORPUS CHRISTI AREA OBSERVATIONS...

CITY           SKY/WX    TMP DP  RH WIND       PRES   REMARKS
CORPUS CHRISTI PTCLDY    78  76  93 S8        29.97R
NAS CORPUS CHR PTCLDY    82  79  90 S12       29.97R HX  92
ROCKPORT       CLEAR     82  76  81 S8        29.97S
KINGSVILLE NAS CLEAR     79  77  94 S7        29.97S
ALICE          CLEAR     78  75  90 S14       29.96S
FALFURRIAS     CLEAR     66  66 100 SE6       29.96S
$$

...VICTORIA AREA OBSERVATIONS...

CITY           SKY/WX    TMP DP  RH WIND       PRES   REMARKS
VICTORIA       CLEAR     77  75  93 E3        30.00R
BEEVILLE       FAIR      77  77 100 SE5       29.98S
PLEASANTON     CLEAR     78  72  83 CALM      29.99R
SAN ANTONIO    CLEAR     79  72  79 S7        30.03R
$$

...LAREDO AREA OBSERVATIONS...

CITY           SKY/WX    TMP DP  RH WIND       PRES   REMARKS
LAREDO         CLEAR     85  69  58 SE15      29.97S
COTULLA        CLEAR     81  72  74 SE9       29.97R
DEL RIO        CLEAR     86  72  62 E13       29.97R HX  92
MCALLEN        CLOUDY    80  77  90 SE10      29.96S
HEBBRONVILLE   CLEAR     78  72  80 SE8       29.98S
$$

...OTHER TEXAS OBSERVATIONS...

CITY           SKY/WX    TMP DP  RH WIND       PRES   REMARKS
BROWNSVILLE    CLEAR     80  77  90 SE8       29.97S
HOUSTON        PTCLDY    82  76  81 CALM      30.02R
COL. STATION   CLEAR     80  74  81 SE5       30.02S
AUSTIN         PTCLDY    77  72  84 S5        30.02R
WACO           CLEAR     79  74  84 E7        30.02S
FORT WORTH     MOCLDY    82  72  71 SE8       30.03F
WICHITA FALLS  CLOUDY    78  72  81 S9        30.01F
LUBBOCK        MOCLDY    79  63  57 SE12      30.12F
EL PASO        PTCLDY    81  57  43 SW7       30.09S
$$

...MARINE OBSERVATIONS...

STATION/POSITION TIME  SKY/WX   TEMP    WIND        PRES    VSBY  WAVE   SWELL
                                AIR SEA DIR/SP/G                  HT/PER HT/PER
                 (UTC)          (F)     (DEG/KT/KT) (MB)    (MI)  (FT/S) (FT/S)
PORT ARANSAS     0700            82 86  160/ 13/ 13 1015.2R
BUOY 90 E PORT A 0700            83 84  180/ 10/ 12 1015.9F         3/ 5   2/ 5
BUOY 45 SE BAFFI 0700            82 82  170/ 10/ 12 1014.8S         2/ 6   2/ 6
BUOY 200 E PT IS 0700            84 85  140/ 10/ 12 1015.8F         2/ 5   2/ 5
BUOY 15 E GALVES NOT AVBL
$$


USA.gov is the U.S. government's official web portal to all federal, state and local government web resources and services.